Погода в Лудорвае

Россия / Удмуртская Республика     56°45′26″N   53°05′34″E
темп.,
°C
ветер,
м/с
пор.,
м/с
влажн.,
%
обл.,
%
осадки,
мм/ч
давл.,
гПа
погр.,
м
11 апреля, вс
вс1101:00+3юв2499100 2.9 102571
04:00+3ссз1199100 10.4 102612
07:00+2з11100100 5.6 102712
10:00+5ю26100100 5.8 1027201
13:00+6з23100100 0.0 1029138
16:00+4ссз23100100 1.9 103161
19:00+3ссз2299100 0.3 103237
22:00+3с2498100 0.4 103474
12 апреля, пн
пн1201:00+1с2494100 0.0 103573
04:000с2490100 0.0 103761
07:00+2ссв2591100 0.0 1038133
10:00+5св3584100 0.0 1039254
13:00+9св3474100 0.0 1039527
16:00+10всв3468100 0.0 1039652
19:00+7всв3484100 0.0 103945
22:00+5в3488100 0.0 103946
13 апреля, вт
вт1301:00+4в2390100 0.0 103938
04:00+3вюв228974 0.0 103913
07:00+4вюв248699 0.0 1039105
10:00+9юв346797 0.0 1037354
13:00+13ююв335623 0.0 1036630
16:00+15ю346151 0.0 1034686
19:00+12ю227966 0.0 103331
22:00+10ю228797 0.0 103332
14 апреля, ср
ср1401:00+8ююз228868 0.0 103225
04:00+7юз228552 0.0 103219
07:00+7юз247662 0.0 103274
10:00+13юз354941 0.0 1031441
13:00+16юз45375 0.0 1029992
16:00+17юз453417 0.0 10281119
19:00+13юз335282 0.0 102630
22:00+9юз235987 0.0 102621
15 апреля, чт
чт1501:00+8юз22645 0.0 102611
04:00+6юз22695 0.0 102510
07:00+8юз227128 0.0 102425
10:00+14ююз245543 0.0 1023450
13:00+17юз35445 0.0 10211267
16:00+18юз45415 0.0 10191565
19:00+14юз22595 0.0 101823
22:00+11зюз23700 0.0 101723